Location: Auckland
(36.8670°S, 174.7670°E)
Time: 07:24:11
(UTC+12:00)

NOSS 2-1 (E) - Pass Details

Date: 28 April 2019
Orbit: 471 x 1733 km, 63.3° (Epoch: 14 May)

Event Time Altitude Azimuth Distance (km) Brightness Sun altitude
Rises 19:10:20 0° 233° (SW) 4,961 8.9 -18.7°
Reaches altitude 10° 19:17:50 10° 198° (SSW) 3,739 7.7 -20.2°
Maximum altitude 19:19:42 11° 187° (S) 3,605 7.5 -20.5°
Drops below altitude 10° 19:21:31 10° 175° (S) 3,569 7.3 -20.9°
Enters shadow 19:25:26 - 151° (SSE) 3,821 7.3 -21.7°
